CGBYQ CYGR-CYXZ

Flight info

Callsign CGBYQ
Flight time 4h 37m
Altitude 24000
Route IKURO Q951 ITPAX Q864 EBGIX/N0269F260 Q864 DERDO Q806 SAVEX DCT BEMOG Q919 DASUG
Aircraft PC12/L-SDFGRWY/S

Departure

Time 2026-05-04 10:56
Airport Îles-de-la-Madeleine Airport (CYGR)

Arrival

Time 2026-05-04 15:34
Airport Wawa Airport (CYXZ)
Time Latitude Longitude Altitude Speed Heading
2026-05-04 10:47 47.42468 -61.77565 25 ft 0 kts 181°
2026-05-04 10:50 47.42467 -61.77565 25 ft 1 kts 181°
2026-05-04 10:51 47.42496 -61.77317 24 ft 0 kts 47°
2026-05-04 10:52 47.42506 -61.77303 24 ft 6 kts 42°
2026-05-04 10:52 47.42535 -61.77235 25 ft 11 kts 105°
2026-05-04 10:52 47.42480 -61.77144 26 ft 14 kts 135°
2026-05-04 10:54 47.42280 -61.76861 38 ft 0 kts 315°
2026-05-04 10:56 47.43039 -61.79811 729 ft 125 kts 216°
2026-05-04 10:56 47.42073 -61.80081 907 ft 156 kts 193°
2026-05-04 10:56 47.40946 -61.80264 1262 ft 169 kts 192°
2026-05-04 10:57 47.39786 -61.80576 1650 ft 169 kts 213°
2026-05-04 10:57 47.38984 -61.81755 2065 ft 162 kts 240°
2026-05-04 10:57 47.38201 -61.83018 2489 ft 172 kts 223°
2026-05-04 10:57 47.37278 -61.84182 2911 ft 176 kts 220°
2026-05-04 10:58 47.36651 -61.84949 3199 ft 178 kts 219°
2026-05-04 10:58 47.35689 -61.86118 3651 ft 181 kts 219°
2026-05-04 10:58 47.34709 -61.87316 4126 ft 185 kts 220°
2026-05-04 10:58 47.33716 -61.88526 4615 ft 185 kts 220°
2026-05-04 10:59 47.32723 -61.89739 5101 ft 186 kts 220°
2026-05-04 10:59 47.31718 -61.90963 5596 ft 188 kts 220°
2026-05-04 10:59 47.30712 -61.92185 6092 ft 187 kts 220°
2026-05-04 10:59 47.29717 -61.93403 6574 ft 186 kts 220°
2026-05-04 11:00 47.28717 -61.94613 7049 ft 188 kts 220°
2026-05-04 11:01 47.21543 -62.03325 10381 ft 200 kts 224°
2026-05-04 11:02 47.20462 -62.04624 10877 ft 202 kts 224°
2026-05-04 11:02 47.19382 -62.05929 11376 ft 200 kts 224°
2026-05-04 11:05 47.04243 -62.24185 18296 ft 199 kts 222°
2026-05-04 11:06 47.03168 -62.25473 18769 ft 200 kts 222°
2026-05-04 11:06 47.02090 -62.26764 19253 ft 199 kts 222°
2026-05-04 11:06 47.01021 -62.28037 19709 ft 198 kts 223°
2026-05-04 11:06 46.99958 -62.29325 20156 ft 196 kts 223°
2026-05-04 11:08 46.92277 -62.38512 22603 ft 224 kts 224°
2026-05-04 11:10 46.82891 -62.49683 23309 ft 274 kts 223°
2026-05-04 11:12 46.72256 -62.62282 23337 ft 281 kts 223°
2026-05-04 11:12 46.70721 -62.64088 23341 ft 284 kts 223°
2026-05-04 11:12 46.69189 -62.65886 23348 ft 282 kts 223°
2026-05-04 11:12 46.67677 -62.67674 23347 ft 280 kts 224°
2026-05-04 11:13 46.66446 -62.69135 23358 ft 279 kts 224°
2026-05-04 11:13 46.65106 -62.70709 23357 ft 275 kts 224°
2026-05-04 11:13 46.63626 -62.72446 23356 ft 272 kts 224°
2026-05-04 11:13 46.62481 -62.73797 23367 ft 269 kts 224°
2026-05-04 11:14 46.61039 -62.75494 23366 ft 267 kts 224°
2026-05-04 11:14 46.59589 -62.77198 23366 ft 269 kts 224°
2026-05-04 11:14 46.58297 -62.78720 23377 ft 266 kts 224°
2026-05-04 11:16 46.48799 -62.89840 23386 ft 258 kts 224°
2026-05-04 11:16 46.47974 -62.90801 23398 ft 258 kts 225°
2026-05-04 11:16 46.46569 -62.92443 23394 ft 259 kts 225°
2026-05-04 11:17 46.45170 -62.94066 23395 ft 257 kts 225°
2026-05-04 11:17 46.43782 -62.95689 23393 ft 257 kts 225°
2026-05-04 11:19 46.35987 -63.04757 23406 ft 255 kts 226°
2026-05-04 11:19 46.34607 -63.06365 23447 ft 255 kts 225°
2026-05-04 11:19 46.33220 -63.07972 23444 ft 254 kts 225°
2026-05-04 11:19 46.31840 -63.09560 23443 ft 254 kts 226°
2026-05-04 11:20 46.30640 -63.11266 23449 ft 247 kts 239°
2026-05-04 11:20 46.29834 -63.13383 23443 ft 241 kts 254°
2026-05-04 11:20 46.29575 -63.14681 23440 ft 237 kts 263°
2026-05-04 11:20 46.29417 -63.16420 23443 ft 237 kts 268°
2026-05-04 11:22 46.28697 -63.26023 23447 ft 236 kts 268°
2026-05-04 11:22 46.28517 -63.28384 23451 ft 237 kts 268°
2026-05-04 11:23 46.28336 -63.30759 23449 ft 238 kts 268°
2026-05-04 11:23 46.28154 -63.33133 23442 ft 236 kts 268°
2026-05-04 11:24 46.27309 -63.44017 23445 ft 236 kts 269°
2026-05-04 11:25 46.27303 -63.44096 23454 ft 236 kts 269°
2026-05-04 11:25 46.27136 -63.46241 23450 ft 234 kts 269°
2026-05-04 11:25 46.26954 -63.48560 23454 ft 232 kts 269°
2026-05-04 11:26 46.26588 -63.53220 23451 ft 233 kts 269°
2026-05-04 11:27 46.25472 -63.67352 23481 ft 234 kts 269°
2026-05-04 11:28 46.25466 -63.67429 23481 ft 234 kts 269°
2026-05-04 11:28 46.25316 -63.69320 23485 ft 235 kts 269°
2026-05-04 11:28 46.25129 -63.71661 23490 ft 233 kts 269°
2026-05-04 11:28 46.24936 -63.73991 23487 ft 234 kts 269°
2026-05-04 11:29 46.24745 -63.76333 23489 ft 235 kts 269°
2026-05-04 11:29 46.24561 -63.78661 23497 ft 236 kts 269°
2026-05-04 11:29 46.24365 -63.81051 23499 ft 237 kts 269°
2026-05-04 11:29 46.24173 -63.83412 23507 ft 236 kts 269°
2026-05-04 11:31 46.23118 -63.96207 23528 ft 235 kts 269°
2026-05-04 11:33 46.21826 -64.11733 23548 ft 236 kts 269°
2026-05-04 11:33 46.21631 -64.14085 23550 ft 236 kts 269°
2026-05-04 11:33 46.21537 -64.15189 23549 ft 238 kts 269°
2026-05-04 11:34 46.21336 -64.17552 23549 ft 237 kts 269°
2026-05-04 11:34 46.21136 -64.19948 23555 ft 237 kts 269°
2026-05-04 11:34 46.20940 -64.22291 23554 ft 238 kts 269°
2026-05-04 11:34 46.20739 -64.24664 23555 ft 238 kts 269°
2026-05-04 11:35 46.20579 -64.26526 23554 ft 239 kts 269°
2026-05-04 11:35 46.20376 -64.28910 23557 ft 239 kts 269°
2026-05-04 11:35 46.20172 -64.31289 23564 ft 239 kts 269°
2026-05-04 11:35 46.19967 -64.33676 23564 ft 240 kts 269°
2026-05-04 11:36 46.19761 -64.36067 23564 ft 240 kts 269°
2026-05-04 11:36 46.19568 -64.38302 23564 ft 240 kts 269°
2026-05-04 11:36 46.19360 -64.40699 23565 ft 241 kts 269°
2026-05-04 11:36 46.19152 -64.43104 23564 ft 241 kts 269°
2026-05-04 11:37 46.18942 -64.45513 23574 ft 241 kts 269°
2026-05-04 11:37 46.18737 -64.47874 23574 ft 242 kts 269°
2026-05-04 11:37 46.18526 -64.50285 23573 ft 243 kts 269°
2026-05-04 11:37 46.18316 -64.52679 23574 ft 243 kts 268°
2026-05-04 11:38 46.18103 -64.55102 23573 ft 244 kts 268°
2026-05-04 11:38 46.17891 -64.57530 23573 ft 244 kts 268°
2026-05-04 11:38 46.17675 -64.59966 23573 ft 245 kts 268°
2026-05-04 11:38 46.17389 -64.62384 23573 ft 245 kts 266°
2026-05-04 11:39 46.17132 -64.64818 23574 ft 246 kts 266°
2026-05-04 11:39 46.16875 -64.67263 23573 ft 247 kts 266°
2026-05-04 11:40 46.15239 -64.82004 23574 ft 250 kts 266°
2026-05-04 11:41 46.14963 -64.84480 23574 ft 250 kts 265°
2026-05-04 11:41 46.14685 -64.86965 23574 ft 251 kts 265°
2026-05-04 11:41 46.14407 -64.89451 23573 ft 251 kts 265°
2026-05-04 11:41 46.14127 -64.91941 23573 ft 252 kts 265°
2026-05-04 11:42 46.13847 -64.94438 23573 ft 253 kts 265°
2026-05-04 11:42 46.13564 -64.96944 23572 ft 253 kts 265°
2026-05-04 11:42 46.13280 -64.99454 23575 ft 254 kts 265°
2026-05-04 11:42 46.12995 -65.01969 23573 ft 254 kts 265°
2026-05-04 11:43 46.12710 -65.04488 23572 ft 255 kts 265°
2026-05-04 11:43 46.12424 -65.07004 23575 ft 255 kts 265°
2026-05-04 11:43 46.12136 -65.09532 23583 ft 255 kts 265°
2026-05-04 11:43 46.11846 -65.12066 23583 ft 256 kts 264°
2026-05-04 11:44 46.11557 -65.14598 23581 ft 256 kts 264°
2026-05-04 11:44 46.11359 -65.17131 23592 ft 253 kts 271°
2026-05-04 11:44 46.11317 -65.19668 23602 ft 253 kts 272°
2026-05-04 11:44 46.11292 -65.21347 23602 ft 254 kts 272°
2026-05-04 11:45 46.11232 -65.24726 23603 ft 255 kts 271°
2026-05-04 11:45 46.11182 -65.27281 23603 ft 255 kts 271°
2026-05-04 11:45 46.11133 -65.29845 23608 ft 256 kts 271°
2026-05-04 11:45 46.11084 -65.32403 23611 ft 256 kts 271°
2026-05-04 11:46 46.11050 -65.34134 23611 ft 257 kts 271°
2026-05-04 11:46 46.11000 -65.36685 23611 ft 257 kts 271°
2026-05-04 11:46 46.10949 -65.39264 23611 ft 258 kts 271°
2026-05-04 11:46 46.10897 -65.41848 23621 ft 257 kts 271°
2026-05-04 11:47 46.10845 -65.44424 23620 ft 258 kts 271°
2026-05-04 11:47 46.10792 -65.47013 23620 ft 258 kts 271°
2026-05-04 11:47 46.10738 -65.49598 23620 ft 258 kts 271°
2026-05-04 11:47 46.10684 -65.52184 23620 ft 258 kts 271°
2026-05-04 11:48 46.10628 -65.54776 23629 ft 259 kts 271°
2026-05-04 11:48 46.10572 -65.57370 23629 ft 259 kts 271°
2026-05-04 11:48 46.10516 -65.59969 23629 ft 259 kts 271°
2026-05-04 11:48 46.10459 -65.62567 23629 ft 259 kts 271°
2026-05-04 11:49 46.10402 -65.65168 23630 ft 259 kts 270°
2026-05-04 11:49 46.10343 -65.67760 23649 ft 258 kts 271°
2026-05-04 11:49 46.10284 -65.70358 23657 ft 261 kts 270°
2026-05-04 11:49 46.10224 -65.72985 23659 ft 265 kts 270°
2026-05-04 11:50 46.10164 -65.75642 23660 ft 266 kts 270°
2026-05-04 11:50 46.10102 -65.78313 23677 ft 267 kts 270°
2026-05-04 11:50 46.10038 -65.80983 23677 ft 266 kts 270°
2026-05-04 11:50 46.09974 -65.83607 23677 ft 263 kts 270°
2026-05-04 11:51 46.09910 -65.86247 23686 ft 264 kts 270°
2026-05-04 11:51 46.09849 -65.88899 23690 ft 265 kts 270°
2026-05-04 11:51 46.09786 -65.91557 23695 ft 266 kts 270°
2026-05-04 11:51 46.09719 -65.94226 23695 ft 266 kts 270°
2026-05-04 11:52 46.09651 -65.96893 23695 ft 267 kts 270°
2026-05-04 11:52 46.09586 -65.99557 23695 ft 264 kts 270°
2026-05-04 11:52 46.09521 -66.02200 23696 ft 265 kts 270°
2026-05-04 11:52 46.09450 -66.04857 23695 ft 265 kts 270°
2026-05-04 11:53 46.09379 -66.07510 23711 ft 265 kts 270°
2026-05-04 11:53 46.09310 -66.10168 23703 ft 266 kts 270°
2026-05-04 11:53 46.09241 -66.12836 23704 ft 266 kts 270°
2026-05-04 11:53 46.09171 -66.15502 23704 ft 267 kts 270°
2026-05-04 11:55 46.08655 -66.34212 23719 ft 266 kts 269°
2026-05-04 11:55 46.08583 -66.36821 23717 ft 264 kts 269°
2026-05-04 11:56 46.08501 -66.39476 23710 ft 264 kts 269°
2026-05-04 11:56 46.08423 -66.42117 23719 ft 264 kts 270°
2026-05-04 11:56 46.08352 -66.44750 23708 ft 261 kts 269°
2026-05-04 11:56 46.08180 -66.47329 23716 ft 258 kts 265°
2026-05-04 11:57 46.07986 -66.49911 23712 ft 261 kts 266°
2026-05-04 11:57 46.07805 -66.52527 23720 ft 262 kts 266°
2026-05-04 11:57 46.07618 -66.55145 23720 ft 263 kts 266°
2026-05-04 11:57 46.07421 -66.57768 23713 ft 264 kts 266°
2026-05-04 11:58 46.07221 -66.60400 23714 ft 265 kts 266°
2026-05-04 11:58 46.07025 -66.63036 23714 ft 265 kts 266°
2026-05-04 11:58 46.06831 -66.65642 23715 ft 265 kts 266°
2026-05-04 11:58 46.06630 -66.68319 23714 ft 266 kts 266°
2026-05-04 11:59 46.06430 -66.70967 23714 ft 266 kts 266°
2026-05-04 11:59 46.06231 -66.73611 23716 ft 266 kts 266°
2026-05-04 11:59 46.06031 -66.76259 23725 ft 266 kts 266°
2026-05-04 11:59 46.05830 -66.78906 23715 ft 266 kts 266°
2026-05-04 12:00 46.05628 -66.81548 23722 ft 265 kts 266°
2026-05-04 12:00 46.05426 -66.84187 23715 ft 265 kts 266°
2026-05-04 12:00 46.05224 -66.86822 23715 ft 265 kts 266°
2026-05-04 12:00 46.05024 -66.89421 23720 ft 264 kts 266°
2026-05-04 12:01 46.04821 -66.92051 23716 ft 264 kts 266°
2026-05-04 12:01 46.04618 -66.94680 23715 ft 264 kts 266°
2026-05-04 12:02 46.03391 -67.10352 23723 ft 262 kts 267°
2026-05-04 12:03 46.03186 -67.12947 23723 ft 261 kts 267°
2026-05-04 12:03 46.02980 -67.15548 23732 ft 261 kts 267°
2026-05-04 12:03 46.02775 -67.18118 23726 ft 260 kts 267°
2026-05-04 12:03 46.02567 -67.20730 23727 ft 260 kts 267°
2026-05-04 12:04 46.02360 -67.23314 23723 ft 260 kts 267°
2026-05-04 12:04 46.02153 -67.25897 23722 ft 259 kts 267°
2026-05-04 12:04 46.01946 -67.28473 23728 ft 259 kts 267°
2026-05-04 12:04 46.01739 -67.31038 23731 ft 258 kts 267°
2026-05-04 12:05 46.01532 -67.33597 23732 ft 257 kts 268°
2026-05-04 12:05 46.01324 -67.36152 23733 ft 257 kts 268°
2026-05-04 12:05 46.01117 -67.38698 23733 ft 255 kts 268°
2026-05-04 12:05 46.00910 -67.41224 23742 ft 253 kts 268°
2026-05-04 12:06 46.00705 -67.43733 23741 ft 251 kts 268°
2026-05-04 12:06 46.00504 -67.46193 23740 ft 250 kts 268°
2026-05-04 12:06 46.00300 -67.48675 23740 ft 249 kts 268°
2026-05-04 12:06 46.00096 -67.51147 23740 ft 249 kts 268°
2026-05-04 12:07 45.99891 -67.53613 23740 ft 248 kts 268°
2026-05-04 12:07 45.99687 -67.56071 23740 ft 247 kts 269°
2026-05-04 12:07 45.99485 -67.58514 23741 ft 246 kts 269°
2026-05-04 12:07 45.99282 -67.60951 23741 ft 245 kts 268°
2026-05-04 12:08 45.99078 -67.63385 23740 ft 245 kts 268°
2026-05-04 12:08 45.98875 -67.65798 23739 ft 244 kts 268°
2026-05-04 12:08 45.98670 -67.68240 23739 ft 244 kts 269°
2026-05-04 12:08 45.98467 -67.70658 23739 ft 243 kts 268°
2026-05-04 12:09 45.98263 -67.73073 23739 ft 243 kts 268°
2026-05-04 12:09 45.98058 -67.75488 23739 ft 243 kts 269°
2026-05-04 12:09 45.97853 -67.77906 23739 ft 243 kts 269°
2026-05-04 12:09 45.97648 -67.80324 23739 ft 243 kts 269°
2026-05-04 12:10 45.97443 -67.82734 23739 ft 243 kts 269°
2026-05-04 12:10 45.97237 -67.85149 23739 ft 243 kts 269°
2026-05-04 12:10 45.97034 -67.87528 23739 ft 243 kts 269°
2026-05-04 12:10 45.96827 -67.89942 23739 ft 243 kts 269°
2026-05-04 12:11 45.96620 -67.92358 23740 ft 244 kts 268°
2026-05-04 12:11 45.96411 -67.94777 23740 ft 244 kts 268°
2026-05-04 12:11 45.96202 -67.97196 23740 ft 244 kts 268°
2026-05-04 12:11 45.95993 -67.99617 23740 ft 244 kts 268°
2026-05-04 12:12 45.95782 -68.02037 23751 ft 244 kts 268°
2026-05-04 12:12 45.95572 -68.04451 23751 ft 244 kts 268°
2026-05-04 12:12 45.95362 -68.06867 23750 ft 243 kts 268°
2026-05-04 12:12 45.95152 -68.09278 23750 ft 243 kts 268°
2026-05-04 12:13 45.94940 -68.11696 23751 ft 243 kts 268°
2026-05-04 12:14 45.93447 -68.28563 23761 ft 243 kts 268°
2026-05-04 12:15 45.93231 -68.30969 23760 ft 243 kts 268°
2026-05-04 12:15 45.93016 -68.33374 23771 ft 242 kts 268°
2026-05-04 12:15 45.92800 -68.35778 23771 ft 243 kts 268°
2026-05-04 12:15 45.92584 -68.38181 23772 ft 243 kts 268°
2026-05-04 12:16 45.92367 -68.40586 23779 ft 243 kts 268°
2026-05-04 12:16 45.92150 -68.42990 23780 ft 243 kts 268°
2026-05-04 12:16 45.91931 -68.45401 23779 ft 243 kts 268°
2026-05-04 12:16 45.91711 -68.47806 23788 ft 243 kts 268°
2026-05-04 12:17 45.91493 -68.50205 23787 ft 243 kts 268°
2026-05-04 12:17 45.91273 -68.52612 23788 ft 243 kts 268°
2026-05-04 12:17 45.91056 -68.54985 23788 ft 243 kts 268°
2026-05-04 12:17 45.90836 -68.57386 23788 ft 242 kts 268°
2026-05-04 12:18 45.90615 -68.59788 23784 ft 242 kts 268°
2026-05-04 12:18 45.90394 -68.62183 23788 ft 242 kts 268°
2026-05-04 12:18 45.90173 -68.64576 23789 ft 242 kts 268°
2026-05-04 12:18 45.89950 -68.66976 23789 ft 242 kts 268°
2026-05-04 12:19 45.89728 -68.69369 23788 ft 242 kts 268°
2026-05-04 12:19 45.89506 -68.71760 23785 ft 242 kts 268°
2026-05-04 12:19 45.89283 -68.74152 23788 ft 241 kts 268°
2026-05-04 12:19 45.89060 -68.76535 23786 ft 241 kts 268°
2026-05-04 12:20 45.88837 -68.78914 23788 ft 241 kts 267°
2026-05-04 12:20 45.88613 -68.81294 23786 ft 240 kts 267°
2026-05-04 12:20 45.88389 -68.83671 23787 ft 240 kts 267°
2026-05-04 12:20 45.88169 -68.86009 23787 ft 239 kts 267°
2026-05-04 12:21 45.87945 -68.88369 23787 ft 238 kts 267°
2026-05-04 12:21 45.87722 -68.90727 23787 ft 238 kts 267°
2026-05-04 12:21 45.87498 -68.93085 23788 ft 238 kts 267°
2026-05-04 12:21 45.87274 -68.95442 23785 ft 239 kts 267°
2026-05-04 12:22 45.87049 -68.97803 23789 ft 239 kts 267°
2026-05-04 12:22 45.86823 -69.00160 23789 ft 238 kts 267°
2026-05-04 12:22 45.86598 -69.02516 23785 ft 238 kts 267°
2026-05-04 12:22 45.86372 -69.04867 23787 ft 238 kts 267°
2026-05-04 12:23 45.86145 -69.07216 23789 ft 238 kts 267°
2026-05-04 12:23 45.85919 -69.09564 23787 ft 237 kts 267°
2026-05-04 12:23 45.85692 -69.11909 23785 ft 237 kts 267°
2026-05-04 12:23 45.85465 -69.14248 23789 ft 237 kts 267°
2026-05-04 12:24 45.85237 -69.16594 23787 ft 237 kts 266°
2026-05-04 12:24 45.85013 -69.18904 23787 ft 237 kts 266°
2026-05-04 12:24 45.84784 -69.21245 23788 ft 237 kts 266°
2026-05-04 12:24 45.84556 -69.23584 23789 ft 237 kts 266°
2026-05-04 12:25 45.84327 -69.25919 23788 ft 237 kts 266°
2026-05-04 12:25 45.84097 -69.28259 23789 ft 237 kts 266°
2026-05-04 12:25 45.83867 -69.30600 23788 ft 237 kts 266°
2026-05-04 12:25 45.83636 -69.32943 23784 ft 237 kts 266°
2026-05-04 12:26 45.83404 -69.35285 23783 ft 237 kts 266°
2026-05-04 12:26 45.83172 -69.37630 23784 ft 237 kts 266°
2026-05-04 12:26 45.82940 -69.39967 23784 ft 237 kts 266°
2026-05-04 12:26 45.82708 -69.42299 23781 ft 236 kts 266°
2026-05-04 12:27 45.82479 -69.44606 23783 ft 236 kts 266°
2026-05-04 12:27 45.82245 -69.46939 23785 ft 237 kts 266°
2026-05-04 12:27 45.82011 -69.49277 23785 ft 237 kts 266°
2026-05-04 12:27 45.81777 -69.51612 23780 ft 237 kts 266°
2026-05-04 12:28 45.81543 -69.53942 23781 ft 236 kts 266°
2026-05-04 12:28 45.81309 -69.56265 23784 ft 236 kts 266°
2026-05-04 12:28 45.81074 -69.58594 23775 ft 236 kts 266°
2026-05-04 12:28 45.80838 -69.60925 23773 ft 236 kts 266°
2026-05-04 12:29 45.80603 -69.63248 23774 ft 235 kts 266°
2026-05-04 12:29 45.80368 -69.65564 23773 ft 235 kts 266°
2026-05-04 12:29 45.80131 -69.67883 23773 ft 235 kts 266°
2026-05-04 12:29 45.79896 -69.70196 23772 ft 234 kts 266°
2026-05-04 12:30 45.79660 -69.72507 23773 ft 234 kts 266°
2026-05-04 12:30 45.79423 -69.74814 23773 ft 234 kts 266°
2026-05-04 12:30 45.79186 -69.77122 23773 ft 234 kts 266°
2026-05-04 12:30 45.78949 -69.79425 23772 ft 234 kts 266°
2026-05-04 12:31 45.78712 -69.81730 23771 ft 234 kts 266°
2026-05-04 12:31 45.78474 -69.84035 23772 ft 233 kts 266°
2026-05-04 12:31 45.78239 -69.86302 23772 ft 233 kts 265°
2026-05-04 12:31 45.78002 -69.88598 23773 ft 233 kts 265°
2026-05-04 12:32 45.77763 -69.90897 23772 ft 233 kts 265°
2026-05-04 12:32 45.77284 -69.95490 23772 ft 233 kts 265°
2026-05-04 12:32 45.77044 -69.97790 23773 ft 234 kts 265°
2026-05-04 12:33 45.76802 -70.00093 23772 ft 234 kts 265°
2026-05-04 12:33 45.76560 -70.02401 23772 ft 234 kts 265°
2026-05-04 12:33 45.76318 -70.04708 23773 ft 234 kts 265°
2026-05-04 12:33 45.76074 -70.07016 23772 ft 234 kts 265°
2026-05-04 12:34 45.75913 -70.08543 23772 ft 234 kts 265°
2026-05-04 12:34 45.75670 -70.10848 23772 ft 234 kts 265°
2026-05-04 12:34 45.75426 -70.13149 23772 ft 234 kts 265°
2026-05-04 12:34 45.75182 -70.15449 23773 ft 234 kts 265°
2026-05-04 12:35 45.74937 -70.17752 23772 ft 234 kts 265°
2026-05-04 12:35 45.74692 -70.20052 23772 ft 233 kts 265°
2026-05-04 12:35 45.74446 -70.22351 23772 ft 233 kts 265°
2026-05-04 12:35 45.74201 -70.24647 23772 ft 233 kts 265°
2026-05-04 12:36 45.73955 -70.26943 23766 ft 233 kts 265°
2026-05-04 12:36 45.73708 -70.29236 23774 ft 233 kts 265°
2026-05-04 12:36 45.73462 -70.31534 23770 ft 233 kts 265°
2026-05-04 12:36 45.73215 -70.33820 23774 ft 233 kts 265°
2026-05-04 12:37 45.72968 -70.36109 23770 ft 232 kts 265°
2026-05-04 12:37 45.72721 -70.38394 23772 ft 233 kts 265°
2026-05-04 12:37 45.72472 -70.40686 23774 ft 233 kts 265°
2026-05-04 12:37 45.72219 -70.42981 23774 ft 234 kts 265°
2026-05-04 12:38 45.71963 -70.45285 23774 ft 235 kts 265°
2026-05-04 12:38 45.71706 -70.47595 23774 ft 235 kts 265°
2026-05-04 12:38 45.71454 -70.49872 23773 ft 235 kts 265°
2026-05-04 12:38 45.71198 -70.52180 23774 ft 235 kts 265°
2026-05-04 12:39 45.70940 -70.54493 23775 ft 235 kts 264°
2026-05-04 12:39 45.70684 -70.56790 23778 ft 234 kts 264°
2026-05-04 12:39 45.70425 -70.59095 23779 ft 234 kts 264°
2026-05-04 12:39 45.70168 -70.61396 23779 ft 234 kts 264°
2026-05-04 12:40 45.69910 -70.63696 23779 ft 234 kts 264°
2026-05-04 12:40 45.69651 -70.65993 23779 ft 234 kts 264°
2026-05-04 12:40 45.69392 -70.68295 23778 ft 234 kts 264°
2026-05-04 12:40 45.69134 -70.70584 23778 ft 233 kts 264°
2026-05-04 12:41 45.68874 -70.72874 23779 ft 233 kts 264°
2026-05-04 12:41 45.68615 -70.75164 23778 ft 233 kts 264°
2026-05-04 12:41 45.68356 -70.77453 23780 ft 233 kts 264°
2026-05-04 12:41 45.68095 -70.79742 23778 ft 233 kts 264°
2026-05-04 12:42 45.67922 -70.82005 23777 ft 231 kts 267°
2026-05-04 12:42 45.67777 -70.84293 23778 ft 231 kts 267°
2026-05-04 12:42 45.67629 -70.86583 23778 ft 231 kts 267°
2026-05-04 12:42 45.67484 -70.88873 23778 ft 231 kts 267°
2026-05-04 12:43 45.67339 -70.91166 23778 ft 231 kts 267°
2026-05-04 12:43 45.67193 -70.93459 23778 ft 231 kts 267°
2026-05-04 12:43 45.67046 -70.95751 23779 ft 231 kts 267°
2026-05-04 12:43 45.66899 -70.98040 23778 ft 231 kts 267°
2026-05-04 12:44 45.66751 -71.00329 23779 ft 231 kts 267°
2026-05-04 12:44 45.66603 -71.02625 23778 ft 231 kts 267°
2026-05-04 12:44 45.66454 -71.04916 23778 ft 232 kts 266°
2026-05-04 12:44 45.66305 -71.07210 23779 ft 232 kts 266°
2026-05-04 12:45 45.66156 -71.09500 23778 ft 231 kts 266°
2026-05-04 12:45 45.66006 -71.11792 23778 ft 231 kts 266°
2026-05-04 12:45 45.65856 -71.14077 23774 ft 231 kts 266°
2026-05-04 12:45 45.65705 -71.16362 23775 ft 231 kts 266°
2026-05-04 12:46 45.65554 -71.18643 23774 ft 231 kts 266°
2026-05-04 12:46 45.65403 -71.20921 23774 ft 230 kts 266°
2026-05-04 12:46 45.65252 -71.23201 23775 ft 230 kts 266°
2026-05-04 12:46 45.65100 -71.25473 23775 ft 230 kts 266°
2026-05-04 12:47 45.64950 -71.27719 23775 ft 230 kts 266°
2026-05-04 12:47 45.64795 -71.30021 23775 ft 230 kts 266°
2026-05-04 12:47 45.64644 -71.32261 23774 ft 229 kts 266°
2026-05-04 12:47 45.64491 -71.34527 23775 ft 229 kts 266°
2026-05-04 12:48 45.64337 -71.36799 23774 ft 230 kts 266°
2026-05-04 12:48 45.64183 -71.39076 23775 ft 230 kts 266°
2026-05-04 12:48 45.64028 -71.41355 23775 ft 230 kts 266°
2026-05-04 12:48 45.63872 -71.43626 23775 ft 230 kts 266°
2026-05-04 12:49 45.63717 -71.45897 23764 ft 230 kts 265°
2026-05-04 12:49 45.63560 -71.48175 23764 ft 230 kts 265°
2026-05-04 12:49 45.63403 -71.50452 23764 ft 230 kts 265°
2026-05-04 12:49 45.63246 -71.52724 23763 ft 230 kts 265°
2026-05-04 12:50 45.63089 -71.54989 23763 ft 229 kts 265°
2026-05-04 12:50 45.62933 -71.57228 23764 ft 229 kts 265°
2026-05-04 12:50 45.62774 -71.59492 23764 ft 229 kts 265°
2026-05-04 12:50 45.62617 -71.61754 23764 ft 228 kts 265°
2026-05-04 12:51 45.62459 -71.64012 23763 ft 228 kts 265°
2026-05-04 12:51 45.62300 -71.66268 23764 ft 228 kts 265°
2026-05-04 12:51 45.62140 -71.68522 23763 ft 228 kts 265°
2026-05-04 12:51 45.61981 -71.70779 23763 ft 228 kts 265°
2026-05-04 12:52 45.61821 -71.73030 23765 ft 228 kts 265°
2026-05-04 12:52 45.61661 -71.75280 23765 ft 228 kts 265°
2026-05-04 12:52 45.61500 -71.77529 23764 ft 228 kts 265°
2026-05-04 12:52 45.61339 -71.79782 23764 ft 228 kts 265°
2026-05-04 12:53 45.61177 -71.82035 23764 ft 228 kts 265°
2026-05-04 12:53 45.61015 -71.84283 23764 ft 228 kts 265°
2026-05-04 12:53 45.60853 -71.86529 23765 ft 227 kts 265°
2026-05-04 12:53 45.60691 -71.88777 23763 ft 227 kts 265°
2026-05-04 12:54 45.60528 -71.91017 23763 ft 227 kts 265°
2026-05-04 12:54 45.60365 -71.93257 23764 ft 227 kts 265°
2026-05-04 12:54 45.60202 -71.95491 23765 ft 226 kts 265°
2026-05-04 12:54 45.60038 -71.97727 23763 ft 226 kts 265°
2026-05-04 12:55 45.59873 -71.99965 23765 ft 226 kts 265°
2026-05-04 12:55 45.59709 -72.02201 23764 ft 226 kts 264°
2026-05-04 12:55 45.59544 -72.04437 23764 ft 227 kts 264°
2026-05-04 12:55 45.59378 -72.06677 23764 ft 227 kts 264°
2026-05-04 12:56 45.59214 -72.08888 23764 ft 227 kts 264°
2026-05-04 12:56 45.59047 -72.11127 23765 ft 227 kts 264°
2026-05-04 12:56 45.58880 -72.13371 23764 ft 228 kts 264°
2026-05-04 12:56 45.58712 -72.15620 23764 ft 227 kts 264°
2026-05-04 12:57 45.58544 -72.17862 23763 ft 227 kts 264°
2026-05-04 12:57 45.58375 -72.20103 23765 ft 227 kts 264°
2026-05-04 12:57 45.58206 -72.22349 23766 ft 227 kts 264°
2026-05-04 12:57 45.58037 -72.24591 23765 ft 227 kts 264°
2026-05-04 12:58 45.57867 -72.26830 23764 ft 227 kts 264°
2026-05-04 12:58 45.57697 -72.29075 23764 ft 227 kts 264°
2026-05-04 12:58 45.57528 -72.31288 23766 ft 227 kts 264°
2026-05-04 12:58 45.57357 -72.33535 23764 ft 227 kts 264°
2026-05-04 12:59 45.57294 -72.35785 23763 ft 226 kts 268°
2026-05-04 12:59 45.57250 -72.38035 23764 ft 227 kts 268°
2026-05-04 12:59 45.57204 -72.40287 23769 ft 227 kts 268°
2026-05-04 12:59 45.57160 -72.42538 23768 ft 227 kts 268°
2026-05-04 13:00 45.57116 -72.44790 23769 ft 227 kts 268°
2026-05-04 13:00 45.57071 -72.47045 23769 ft 227 kts 268°
2026-05-04 13:00 45.57026 -72.49281 23768 ft 228 kts 268°
2026-05-04 13:00 45.56980 -72.51541 23769 ft 228 kts 268°
2026-05-04 13:01 45.56933 -72.53797 23768 ft 228 kts 268°
2026-05-04 13:01 45.56886 -72.56062 23769 ft 228 kts 268°
2026-05-04 13:01 45.56838 -72.58324 23769 ft 228 kts 268°
2026-05-04 13:01 45.56790 -72.60590 23769 ft 228 kts 268°
2026-05-04 13:02 45.56741 -72.62854 23769 ft 228 kts 268°
2026-05-04 13:02 45.56692 -72.65124 23765 ft 228 kts 268°
2026-05-04 13:02 45.56643 -72.67386 23765 ft 228 kts 268°
2026-05-04 13:02 45.56594 -72.69651 23766 ft 228 kts 268°
2026-05-04 13:03 45.56544 -72.71911 23765 ft 228 kts 268°
2026-05-04 13:03 45.56492 -72.74172 23766 ft 228 kts 268°
2026-05-04 13:03 45.56441 -72.76436 23754 ft 228 kts 268°
2026-05-04 13:03 45.56389 -72.78699 23754 ft 228 kts 268°
2026-05-04 13:04 45.56337 -72.80962 23755 ft 228 kts 267°
2026-05-04 13:04 45.56284 -72.83223 23755 ft 228 kts 267°
2026-05-04 13:04 45.56232 -72.85459 23756 ft 228 kts 267°
2026-05-04 13:04 45.56178 -72.87724 23755 ft 228 kts 267°
2026-05-04 13:05 45.56124 -72.90012 23756 ft 228 kts 267°
2026-05-04 13:05 45.56069 -72.92272 23755 ft 228 kts 267°
2026-05-04 13:05 45.56015 -72.94535 23755 ft 228 kts 267°
2026-05-04 13:05 45.55960 -72.96786 23756 ft 227 kts 267°
2026-05-04 13:06 45.55905 -72.99007 23755 ft 227 kts 267°
2026-05-04 13:06 45.55849 -73.01254 23755 ft 227 kts 267°
2026-05-04 13:06 45.55792 -73.03511 23755 ft 227 kts 267°
2026-05-04 13:06 45.55737 -73.05707 23745 ft 227 kts 267°
2026-05-04 13:07 45.55680 -73.07960 23746 ft 227 kts 267°
2026-05-04 13:07 45.55622 -73.10212 23746 ft 227 kts 267°
2026-05-04 13:07 45.55564 -73.12467 23745 ft 227 kts 266°
2026-05-04 13:07 45.55506 -73.14709 23750 ft 225 kts 266°
2026-05-04 13:08 45.55447 -73.16946 23748 ft 226 kts 266°
2026-05-04 13:08 45.55387 -73.19190 23744 ft 227 kts 266°
2026-05-04 13:08 45.55328 -73.21449 23743 ft 227 kts 266°
2026-05-04 13:08 45.55268 -73.23689 23743 ft 227 kts 266°
2026-05-04 13:09 45.55207 -73.25938 23743 ft 227 kts 266°
2026-05-04 13:09 45.55151 -73.27993 23743 ft 226 kts 266°
2026-05-04 13:09 45.55089 -73.30252 23742 ft 226 kts 266°
2026-05-04 13:09 45.55027 -73.32487 23744 ft 226 kts 266°
2026-05-04 13:10 45.54965 -73.34731 23744 ft 226 kts 266°
2026-05-04 13:10 45.54902 -73.36977 23743 ft 227 kts 266°
2026-05-04 13:10 45.54838 -73.39226 23743 ft 226 kts 266°
2026-05-04 13:10 45.54776 -73.41437 23743 ft 226 kts 266°
2026-05-04 13:11 45.54713 -73.43676 23743 ft 226 kts 266°
2026-05-04 13:11 45.54647 -73.45908 23743 ft 225 kts 266°
2026-05-04 13:11 45.54583 -73.48140 23743 ft 225 kts 265°
2026-05-04 13:11 45.54519 -73.50374 23743 ft 225 kts 265°
2026-05-04 13:12 45.54453 -73.52608 23743 ft 225 kts 265°
2026-05-04 13:12 45.54386 -73.54845 23743 ft 225 kts 265°
2026-05-04 13:12 45.54320 -73.57076 23743 ft 225 kts 265°
2026-05-04 13:12 45.54253 -73.59303 23743 ft 225 kts 265°
2026-05-04 13:13 45.54187 -73.61499 23743 ft 225 kts 265°
2026-05-04 13:13 45.54119 -73.63763 23743 ft 225 kts 265°
2026-05-04 13:13 45.54051 -73.65990 23743 ft 225 kts 265°
2026-05-04 13:13 45.53982 -73.68215 23743 ft 224 kts 265°
2026-05-04 13:14 45.53915 -73.70412 23743 ft 224 kts 265°
2026-05-04 13:14 45.53845 -73.72635 23743 ft 224 kts 265°
2026-05-04 13:14 45.53776 -73.74862 23743 ft 224 kts 265°
2026-05-04 13:14 45.53706 -73.77082 23743 ft 224 kts 265°
2026-05-04 13:15 45.53635 -73.79298 23743 ft 223 kts 265°
2026-05-04 13:15 45.53565 -73.81513 23743 ft 223 kts 265°
2026-05-04 13:15 45.53494 -73.83724 23743 ft 223 kts 265°
2026-05-04 13:15 45.53423 -73.85939 23743 ft 224 kts 265°
2026-05-04 13:16 45.53350 -73.88156 23743 ft 224 kts 265°
2026-05-04 13:16 45.53278 -73.90373 23744 ft 224 kts 265°
2026-05-04 13:16 45.53205 -73.92593 23743 ft 224 kts 265°
2026-05-04 13:16 45.53132 -73.94816 23743 ft 224 kts 265°
2026-05-04 13:17 45.53058 -73.97031 23743 ft 224 kts 265°
2026-05-04 13:17 45.52984 -73.99248 23743 ft 224 kts 265°
2026-05-04 13:17 45.52909 -74.01460 23742 ft 223 kts 265°
2026-05-04 13:17 45.52835 -74.03673 23744 ft 223 kts 265°
2026-05-04 13:18 45.52759 -74.05887 23743 ft 223 kts 265°
2026-05-04 13:18 45.52683 -74.08099 23743 ft 223 kts 265°
2026-05-04 13:18 45.52607 -74.10309 23742 ft 223 kts 265°
2026-05-04 13:18 45.52531 -74.12514 23743 ft 223 kts 265°
2026-05-04 13:19 45.52454 -74.14724 23743 ft 223 kts 265°
2026-05-04 13:19 45.52403 -74.16190 23743 ft 223 kts 265°
2026-05-04 13:19 45.52300 -74.19123 23743 ft 224 kts 265°
2026-05-04 13:19 45.52222 -74.21336 23743 ft 223 kts 265°
2026-05-04 13:20 45.52143 -74.23550 23743 ft 224 kts 265°
2026-05-04 13:20 45.52063 -74.25768 23743 ft 224 kts 265°
2026-05-04 13:20 45.51984 -74.27991 23743 ft 224 kts 265°
2026-05-04 13:20 45.51904 -74.30212 23743 ft 224 kts 266°
2026-05-04 13:21 45.51823 -74.32427 23743 ft 224 kts 266°
2026-05-04 13:21 45.51769 -74.33897 23743 ft 224 kts 266°
2026-05-04 13:21 45.51688 -74.36114 23743 ft 224 kts 266°
2026-05-04 13:21 45.51606 -74.38336 23743 ft 224 kts 266°
2026-05-04 13:22 45.51524 -74.40557 23743 ft 224 kts 266°
2026-05-04 13:22 45.51441 -74.42774 23751 ft 224 kts 266°
2026-05-04 13:22 45.51422 -74.44990 23749 ft 224 kts 274°
2026-05-04 13:22 45.51881 -74.47133 23750 ft 231 kts 291°
2026-05-04 13:23 45.52825 -74.49019 23752 ft 236 kts 302°
2026-05-04 13:23 45.53886 -74.50810 23756 ft 237 kts 302°
2026-05-04 13:23 45.54947 -74.52606 23755 ft 237 kts 302°
2026-05-04 13:23 45.56004 -74.54413 23753 ft 237 kts 302°
2026-05-04 13:24 45.57057 -74.56217 23753 ft 237 kts 302°
2026-05-04 13:24 45.58110 -74.58020 23753 ft 237 kts 302°
2026-05-04 13:24 45.59163 -74.59821 23755 ft 236 kts 302°
2026-05-04 13:25 45.61266 -74.63425 23753 ft 236 kts 302°
2026-05-04 13:25 45.62306 -74.65209 23753 ft 236 kts 302°
2026-05-04 13:25 45.63356 -74.67010 23755 ft 236 kts 302°
2026-05-04 13:25 45.64403 -74.68810 23754 ft 235 kts 302°
2026-05-04 13:26 45.65448 -74.70606 23755 ft 235 kts 303°
2026-05-04 13:26 45.66491 -74.72401 23756 ft 235 kts 303°
2026-05-04 13:26 45.67535 -74.74197 23752 ft 234 kts 303°
2026-05-04 13:26 45.68574 -74.75986 23757 ft 234 kts 303°
2026-05-04 13:27 45.69612 -74.77774 23754 ft 233 kts 303°
2026-05-04 13:27 45.70650 -74.79565 23754 ft 234 kts 303°
2026-05-04 13:27 45.71690 -74.81362 23753 ft 234 kts 303°
2026-05-04 13:27 45.72730 -74.83157 23754 ft 234 kts 303°
2026-05-04 13:28 45.73772 -74.84954 23755 ft 234 kts 303°
2026-05-04 13:28 45.74811 -74.86750 23754 ft 234 kts 303°
2026-05-04 13:28 45.75850 -74.88547 23756 ft 234 kts 303°
2026-05-04 13:28 45.76883 -74.90335 23755 ft 233 kts 303°
2026-05-04 13:29 45.77914 -74.92122 23758 ft 232 kts 304°
2026-05-04 13:29 45.78941 -74.93902 23754 ft 231 kts 304°
2026-05-04 13:29 45.79967 -74.95682 23755 ft 232 kts 304°
2026-05-04 13:29 45.80991 -74.97458 23754 ft 231 kts 304°
2026-05-04 13:30 45.82013 -74.99231 23754 ft 230 kts 304°
2026-05-04 13:30 45.83029 -75.00998 23754 ft 229 kts 304°
2026-05-04 13:30 45.84043 -75.02761 23753 ft 229 kts 304°
2026-05-04 13:30 45.85054 -75.04520 23756 ft 228 kts 304°
2026-05-04 13:31 45.86050 -75.06254 23751 ft 227 kts 304°
2026-05-04 13:31 45.87053 -75.08002 23755 ft 227 kts 305°
2026-05-04 13:31 45.88067 -75.09769 23756 ft 226 kts 305°
2026-05-04 13:31 45.89053 -75.11489 23753 ft 226 kts 305°
2026-05-04 13:32 45.90061 -75.13249 23755 ft 225 kts 305°
2026-05-04 13:32 45.91043 -75.14965 23755 ft 225 kts 305°
2026-05-04 13:32 45.92039 -75.16703 23753 ft 225 kts 306°
2026-05-04 13:32 45.93029 -75.18434 23755 ft 224 kts 305°
2026-05-04 13:33 45.94020 -75.20169 23755 ft 224 kts 306°
2026-05-04 13:33 45.95005 -75.21894 23752 ft 223 kts 306°
2026-05-04 13:33 45.95986 -75.23612 23757 ft 222 kts 306°
2026-05-04 13:33 45.96964 -75.25327 23753 ft 221 kts 306°
2026-05-04 13:34 45.97940 -75.27039 23756 ft 221 kts 306°
2026-05-04 13:34 45.98914 -75.28748 23755 ft 221 kts 306°
2026-05-04 13:34 45.99885 -75.30455 23755 ft 220 kts 306°
2026-05-04 13:34 46.00855 -75.32158 23756 ft 220 kts 306°
2026-05-04 13:35 46.01824 -75.33863 23754 ft 220 kts 306°
2026-05-04 13:35 46.03765 -75.37278 23754 ft 220 kts 306°
2026-05-04 13:35 46.04735 -75.38988 23754 ft 220 kts 306°
2026-05-04 13:36 46.05701 -75.40689 23755 ft 219 kts 306°
2026-05-04 13:36 46.06666 -75.42392 23754 ft 219 kts 306°
2026-05-04 13:36 46.07630 -75.44094 23754 ft 219 kts 306°
2026-05-04 13:36 46.08590 -75.45787 23754 ft 218 kts 306°
2026-05-04 13:37 46.09548 -75.47481 23756 ft 217 kts 306°
2026-05-04 13:37 46.10502 -75.49168 23756 ft 217 kts 307°
2026-05-04 13:37 46.11444 -75.50835 23754 ft 217 kts 307°
2026-05-04 13:37 46.12395 -75.52516 23755 ft 216 kts 307°
2026-05-04 13:38 46.13346 -75.54201 23759 ft 216 kts 307°
2026-05-04 13:38 46.14293 -75.55880 23756 ft 216 kts 307°
2026-05-04 13:38 46.15173 -75.57620 23757 ft 214 kts 298°
2026-05-04 13:38 46.15769 -75.59577 23756 ft 213 kts 295°
2026-05-04 13:39 46.16356 -75.61538 23761 ft 213 kts 295°
2026-05-04 13:39 46.16951 -75.63499 23745 ft 213 kts 295°
2026-05-04 13:39 46.17542 -75.65457 23750 ft 213 kts 295°
2026-05-04 13:39 46.18133 -75.67419 23749 ft 213 kts 295°
2026-05-04 13:40 46.18715 -75.69357 23746 ft 212 kts 295°
2026-05-04 13:40 46.19302 -75.71309 23746 ft 212 kts 295°
2026-05-04 13:40 46.19888 -75.73260 23746 ft 211 kts 295°
2026-05-04 13:40 46.20471 -75.75205 23748 ft 211 kts 295°
2026-05-04 13:41 46.21053 -75.77143 23746 ft 210 kts 295°
2026-05-04 13:41 46.21636 -75.79088 23747 ft 211 kts 295°
2026-05-04 13:41 46.22219 -75.81036 23747 ft 212 kts 295°
2026-05-04 13:42 46.23385 -75.84938 23737 ft 212 kts 296°
2026-05-04 13:42 46.23967 -75.86885 23735 ft 211 kts 296°
2026-05-04 13:42 46.24547 -75.88829 23738 ft 210 kts 296°
2026-05-04 13:42 46.25126 -75.90768 23737 ft 210 kts 296°
2026-05-04 13:43 46.25707 -75.92713 23732 ft 211 kts 296°
2026-05-04 13:43 46.26285 -75.94662 23735 ft 211 kts 295°
2026-05-04 13:43 46.26865 -75.96612 23732 ft 211 kts 295°
2026-05-04 13:43 46.27437 -75.98531 23733 ft 211 kts 295°
2026-05-04 13:44 46.28016 -76.00480 23733 ft 211 kts 295°
2026-05-04 13:44 46.28593 -76.02426 23733 ft 211 kts 296°
2026-05-04 13:44 46.29170 -76.04374 23735 ft 210 kts 296°
2026-05-04 13:44 46.29747 -76.06319 23733 ft 210 kts 296°
2026-05-04 13:45 46.30322 -76.08262 23732 ft 210 kts 296°
2026-05-04 13:45 46.30897 -76.10205 23733 ft 210 kts 296°
2026-05-04 13:45 46.31473 -76.12152 23733 ft 210 kts 295°
2026-05-04 13:45 46.32048 -76.14100 23735 ft 210 kts 296°
2026-05-04 13:46 46.32623 -76.16046 23732 ft 210 kts 296°
2026-05-04 13:46 46.33197 -76.17991 23732 ft 210 kts 296°
2026-05-04 13:46 46.33771 -76.19939 23733 ft 211 kts 296°
2026-05-04 13:46 46.34345 -76.21889 23733 ft 210 kts 296°
2026-05-04 13:47 46.34911 -76.23809 23738 ft 210 kts 296°
2026-05-04 13:47 46.35492 -76.25786 23734 ft 211 kts 296°
2026-05-04 13:47 46.36057 -76.27714 23736 ft 210 kts 296°
2026-05-04 13:47 46.36628 -76.29660 23735 ft 210 kts 296°
2026-05-04 13:48 46.37201 -76.31611 23734 ft 211 kts 295°
2026-05-04 13:48 46.37776 -76.33570 23733 ft 212 kts 295°
2026-05-04 13:48 46.38352 -76.35536 23726 ft 212 kts 295°
2026-05-04 13:48 46.38927 -76.37504 23724 ft 213 kts 295°
2026-05-04 13:49 46.39505 -76.39479 23735 ft 213 kts 295°
2026-05-04 13:49 46.40084 -76.41457 23729 ft 214 kts 295°
2026-05-04 13:49 46.40664 -76.43444 23729 ft 214 kts 296°
2026-05-04 13:49 46.41244 -76.45434 23723 ft 215 kts 296°
2026-05-04 13:50 46.41825 -76.47428 23724 ft 215 kts 296°
2026-05-04 13:50 46.42407 -76.49426 23726 ft 215 kts 295°
2026-05-04 13:50 46.42987 -76.51420 23734 ft 215 kts 295°
2026-05-04 13:50 46.43568 -76.53417 23723 ft 215 kts 295°
2026-05-04 13:51 46.44150 -76.55421 23723 ft 216 kts 295°
2026-05-04 13:51 46.44732 -76.57425 23723 ft 216 kts 295°
2026-05-04 13:51 46.45313 -76.59428 23730 ft 216 kts 295°
2026-05-04 13:51 46.45894 -76.61434 23730 ft 216 kts 295°
2026-05-04 13:52 46.47048 -76.65420 23727 ft 216 kts 295°
2026-05-04 13:52 46.47628 -76.67426 23723 ft 216 kts 295°
2026-05-04 13:52 46.48211 -76.69441 23722 ft 216 kts 295°
2026-05-04 13:53 46.48793 -76.71461 23727 ft 216 kts 296°
2026-05-04 13:53 46.49373 -76.73473 23732 ft 217 kts 296°
2026-05-04 13:53 46.49955 -76.75494 23723 ft 217 kts 295°
2026-05-04 13:54 46.51119 -76.79538 23722 ft 217 kts 295°
2026-05-04 13:54 46.51702 -76.81565 23730 ft 217 kts 295°
2026-05-04 13:54 46.52865 -76.85614 23716 ft 217 kts 295°
2026-05-04 13:55 46.53446 -76.87641 23729 ft 217 kts 295°
2026-05-04 13:55 46.54607 -76.91695 23725 ft 217 kts 296°
2026-05-04 13:55 46.55187 -76.93724 23720 ft 218 kts 296°
2026-05-04 13:56 46.55767 -76.95753 23715 ft 218 kts 296°
2026-05-04 13:56 46.56348 -76.97786 23719 ft 218 kts 296°
2026-05-04 13:56 46.57500 -77.01830 23718 ft 218 kts 295°
2026-05-04 13:57 46.58081 -77.03869 23715 ft 219 kts 295°
2026-05-04 13:57 46.58665 -77.05918 23715 ft 220 kts 296°
2026-05-04 13:58 46.60418 -77.12090 23716 ft 220 kts 296°
2026-05-04 13:58 46.61586 -77.16207 23714 ft 220 kts 296°
2026-05-04 13:58 46.62170 -77.18271 23719 ft 220 kts 296°
2026-05-04 13:59 46.62753 -77.20329 23715 ft 220 kts 296°
2026-05-04 13:59 46.63327 -77.22360 23716 ft 220 kts 296°
2026-05-04 13:59 46.64488 -77.26473 23721 ft 220 kts 296°
2026-05-04 14:00 46.65066 -77.28527 23715 ft 219 kts 296°
2026-05-04 14:00 46.66225 -77.32639 23714 ft 219 kts 296°
2026-05-04 14:00 46.66804 -77.34697 23714 ft 219 kts 296°
2026-05-04 14:01 46.67381 -77.36751 23708 ft 219 kts 296°
2026-05-04 14:01 46.67958 -77.38808 23696 ft 219 kts 296°
2026-05-04 14:01 46.69111 -77.42919 23697 ft 219 kts 296°
2026-05-04 14:02 46.69686 -77.44972 23699 ft 219 kts 296°
2026-05-04 14:02 46.70261 -77.47025 23699 ft 219 kts 296°
2026-05-04 14:02 46.70833 -77.49077 23698 ft 219 kts 296°
2026-05-04 14:02 46.71405 -77.51132 23698 ft 218 kts 296°
2026-05-04 14:03 46.71967 -77.53156 23696 ft 219 kts 296°
2026-05-04 14:03 46.72538 -77.55213 23697 ft 219 kts 296°
2026-05-04 14:03 46.73109 -77.57269 23697 ft 219 kts 296°
2026-05-04 14:03 46.73679 -77.59327 23697 ft 219 kts 296°
2026-05-04 14:04 46.74821 -77.63446 23697 ft 219 kts 296°
2026-05-04 14:04 46.75390 -77.65504 23697 ft 219 kts 296°
2026-05-04 14:04 46.75959 -77.67562 23698 ft 219 kts 296°
2026-05-04 14:05 46.77093 -77.71674 23698 ft 219 kts 296°
2026-05-04 14:05 46.77660 -77.73732 23698 ft 219 kts 296°
2026-05-04 14:05 46.78227 -77.75791 23686 ft 219 kts 296°
2026-05-04 14:06 46.78794 -77.77848 23687 ft 218 kts 296°
2026-05-04 14:06 46.79359 -77.79906 23688 ft 219 kts 296°
2026-05-04 14:06 46.79924 -77.81963 23687 ft 219 kts 296°
2026-05-04 14:06 46.80486 -77.84008 23679 ft 220 kts 296°
2026-05-04 14:07 46.81060 -77.86104 23677 ft 220 kts 296°
2026-05-04 14:07 46.81620 -77.88148 23680 ft 220 kts 296°
2026-05-04 14:07 46.82189 -77.90224 23679 ft 220 kts 296°
2026-05-04 14:07 46.82755 -77.92296 23679 ft 220 kts 296°
2026-05-04 14:08 46.83321 -77.94367 23679 ft 219 kts 296°
2026-05-04 14:08 46.83886 -77.96435 23680 ft 219 kts 296°
2026-05-04 14:08 46.84451 -77.98506 23680 ft 219 kts 296°
2026-05-04 14:08 46.85015 -78.00574 23681 ft 219 kts 296°
2026-05-04 14:09 46.86142 -78.04716 23680 ft 219 kts 296°
2026-05-04 14:09 46.86704 -78.06784 23681 ft 219 kts 296°
2026-05-04 14:10 46.87628 -78.10189 23679 ft 219 kts 296°
2026-05-04 14:10 46.88197 -78.12286 23680 ft 219 kts 296°
2026-05-04 14:10 46.88759 -78.14361 23680 ft 219 kts 296°
2026-05-04 14:10 46.89319 -78.16431 23680 ft 219 kts 296°
2026-05-04 14:11 46.89879 -78.18501 23671 ft 219 kts 296°
2026-05-04 14:11 46.90997 -78.22638 23671 ft 219 kts 296°
2026-05-04 14:11 46.91555 -78.24707 23670 ft 218 kts 296°
2026-05-04 14:12 46.92112 -78.26775 23670 ft 218 kts 296°
2026-05-04 14:12 46.92669 -78.28843 23670 ft 218 kts 296°
2026-05-04 14:12 46.93781 -78.32974 23670 ft 218 kts 296°
2026-05-04 14:13 46.94334 -78.35034 23670 ft 218 kts 296°
2026-05-04 14:13 46.94888 -78.37098 23670 ft 217 kts 296°
2026-05-04 14:13 46.95439 -78.39154 23670 ft 217 kts 296°
2026-05-04 14:13 46.95990 -78.41207 23670 ft 217 kts 296°
2026-05-04 14:14 46.96540 -78.43264 23670 ft 217 kts 296°
2026-05-04 14:14 46.97639 -78.47375 23670 ft 217 kts 296°
2026-05-04 14:14 46.98188 -78.49434 23670 ft 217 kts 296°
2026-05-04 14:15 46.99283 -78.53542 23671 ft 218 kts 296°
2026-05-04 14:15 47.00386 -78.57686 23671 ft 218 kts 296°
2026-05-04 14:16 47.01491 -78.61844 23669 ft 219 kts 296°
2026-05-04 14:16 47.02042 -78.63923 23673 ft 219 kts 295°
2026-05-04 14:17 47.03143 -78.68076 23669 ft 219 kts 295°
2026-05-04 14:17 47.03693 -78.70153 23667 ft 218 kts 295°
2026-05-04 14:17 47.04789 -78.74300 23669 ft 218 kts 295°
2026-05-04 14:18 47.05333 -78.76367 23669 ft 218 kts 295°
2026-05-04 14:18 47.06426 -78.80509 23663 ft 218 kts 295°
2026-05-04 14:19 47.07520 -78.84670 23660 ft 218 kts 295°
2026-05-04 14:19 47.08060 -78.86721 23653 ft 219 kts 295°
2026-05-04 14:19 47.08605 -78.88800 23652 ft 218 kts 295°
2026-05-04 14:19 47.09151 -78.90881 23652 ft 218 kts 295°
2026-05-04 14:20 47.09696 -78.92961 23654 ft 218 kts 295°
2026-05-04 14:20 47.10241 -78.95042 23652 ft 219 kts 295°
2026-05-04 14:20 47.10786 -78.97126 23645 ft 219 kts 295°
2026-05-04 14:21 47.11879 -79.01315 23642 ft 220 kts 295°
2026-05-04 14:21 47.12427 -79.03411 23643 ft 220 kts 295°
2026-05-04 14:21 47.12973 -79.05508 23643 ft 220 kts 295°
2026-05-04 14:21 47.13520 -79.07607 23642 ft 220 kts 295°
2026-05-04 14:22 47.14066 -79.09708 23642 ft 220 kts 295°
2026-05-04 14:22 47.14610 -79.11802 23643 ft 220 kts 295°
2026-05-04 14:22 47.15156 -79.13902 23642 ft 220 kts 295°
2026-05-04 14:22 47.15700 -79.16000 23643 ft 220 kts 294°
2026-05-04 14:23 47.16788 -79.20198 23644 ft 220 kts 294°
2026-05-04 14:23 47.17333 -79.22305 23643 ft 220 kts 294°
2026-05-04 14:23 47.17876 -79.24406 23642 ft 220 kts 294°
2026-05-04 14:24 47.18419 -79.26508 23642 ft 220 kts 294°
2026-05-04 14:24 47.18961 -79.28608 23643 ft 220 kts 294°
2026-05-04 14:24 47.19504 -79.30713 23634 ft 220 kts 294°
2026-05-04 14:24 47.20047 -79.32823 23633 ft 221 kts 294°
2026-05-04 14:25 47.20590 -79.34932 23634 ft 221 kts 294°
2026-05-04 14:25 47.21669 -79.39131 23633 ft 221 kts 294°
2026-05-04 14:25 47.22218 -79.41273 23634 ft 221 kts 294°
2026-05-04 14:26 47.22754 -79.43363 23633 ft 221 kts 294°
2026-05-04 14:26 47.23298 -79.45485 23630 ft 221 kts 294°
2026-05-04 14:26 47.23838 -79.47597 23633 ft 221 kts 294°
2026-05-04 14:26 47.24377 -79.49705 23630 ft 220 kts 294°
2026-05-04 14:27 47.24916 -79.51813 23626 ft 220 kts 294°
2026-05-04 14:27 47.25454 -79.53922 23623 ft 220 kts 294°
2026-05-04 14:27 47.25992 -79.56032 23622 ft 220 kts 294°
2026-05-04 14:27 47.26528 -79.58140 23620 ft 220 kts 293°
2026-05-04 14:28 47.27065 -79.60248 23621 ft 220 kts 293°
2026-05-04 14:28 47.27599 -79.62351 23622 ft 219 kts 293°
2026-05-04 14:28 47.28135 -79.64461 23621 ft 220 kts 293°
2026-05-04 14:28 47.28671 -79.66569 23621 ft 220 kts 293°
2026-05-04 14:29 47.29741 -79.70792 23621 ft 220 kts 293°
2026-05-04 14:29 47.30802 -79.74987 23620 ft 220 kts 293°
2026-05-04 14:30 47.31335 -79.77099 23620 ft 220 kts 293°
2026-05-04 14:30 47.31868 -79.79210 23622 ft 220 kts 293°
2026-05-04 14:30 47.32934 -79.83440 23621 ft 220 kts 293°
2026-05-04 14:31 47.33468 -79.85561 23617 ft 221 kts 293°
2026-05-04 14:31 47.34537 -79.89814 23616 ft 221 kts 293°
2026-05-04 14:32 47.35606 -79.94072 23614 ft 221 kts 293°
2026-05-04 14:32 47.36139 -79.96204 23613 ft 221 kts 292°
2026-05-04 14:32 47.36665 -79.98304 23614 ft 221 kts 292°
2026-05-04 14:32 47.37197 -80.00433 23615 ft 221 kts 292°
2026-05-04 14:33 47.37729 -80.02560 23613 ft 222 kts 292°
2026-05-04 14:33 47.38262 -80.04698 23613 ft 222 kts 292°
2026-05-04 14:33 47.38795 -80.06838 23613 ft 222 kts 292°
2026-05-04 14:33 47.39329 -80.08981 23613 ft 223 kts 292°
2026-05-04 14:34 47.39863 -80.11125 23613 ft 223 kts 292°
2026-05-04 14:34 47.40396 -80.13270 23613 ft 223 kts 292°
2026-05-04 14:34 47.40929 -80.15416 23613 ft 223 kts 292°
2026-05-04 14:34 47.41462 -80.17567 23614 ft 223 kts 292°
2026-05-04 14:35 47.41996 -80.19718 23613 ft 223 kts 292°
2026-05-04 14:35 47.42527 -80.21865 23613 ft 223 kts 292°
2026-05-04 14:35 47.43060 -80.24017 23614 ft 223 kts 292°
2026-05-04 14:35 47.43592 -80.26169 23613 ft 223 kts 292°
2026-05-04 14:36 47.44123 -80.28319 23614 ft 223 kts 292°
2026-05-04 14:36 47.44655 -80.30478 23613 ft 224 kts 292°
2026-05-04 14:36 47.45187 -80.32636 23615 ft 224 kts 292°
2026-05-04 14:36 47.45721 -80.34800 23614 ft 224 kts 292°
2026-05-04 14:37 47.46256 -80.36976 23616 ft 225 kts 292°
2026-05-04 14:37 47.46608 -80.39226 23616 ft 227 kts 281°
2026-05-04 14:37 47.46731 -80.41553 23617 ft 227 kts 279°
2026-05-04 14:37 47.46891 -80.43871 23618 ft 226 kts 281°
2026-05-04 14:38 47.47106 -80.46170 23616 ft 226 kts 282°
2026-05-04 14:38 47.47324 -80.48471 23617 ft 226 kts 282°
2026-05-04 14:38 47.47530 -80.50776 23616 ft 226 kts 282°
2026-05-04 14:38 47.47731 -80.53052 23616 ft 226 kts 282°
2026-05-04 14:39 47.47935 -80.55355 23618 ft 226 kts 282°
2026-05-04 14:39 47.48140 -80.57665 23615 ft 227 kts 282°
2026-05-04 14:39 47.48344 -80.59979 23615 ft 227 kts 282°
2026-05-04 14:40 47.48751 -80.64612 23614 ft 228 kts 282°
2026-05-04 14:40 47.48955 -80.66934 23615 ft 228 kts 282°
2026-05-04 14:40 47.49158 -80.69257 23616 ft 228 kts 282°
2026-05-04 14:40 47.49362 -80.71583 23614 ft 228 kts 282°
2026-05-04 14:41 47.49564 -80.73911 23615 ft 228 kts 281°
2026-05-04 14:41 47.49767 -80.76243 23615 ft 228 kts 281°
2026-05-04 14:41 47.50170 -80.80899 23608 ft 228 kts 281°
2026-05-04 14:42 47.50572 -80.85563 23607 ft 229 kts 281°
2026-05-04 14:42 47.50771 -80.87893 23606 ft 229 kts 281°
2026-05-04 14:42 47.50969 -80.90208 23606 ft 229 kts 281°
2026-05-04 14:43 47.51169 -80.92548 23606 ft 229 kts 281°
2026-05-04 14:43 47.51368 -80.94884 23606 ft 229 kts 281°
2026-05-04 14:43 47.51567 -80.97227 23607 ft 229 kts 281°
2026-05-04 14:43 47.51767 -80.99578 23593 ft 230 kts 281°
2026-05-04 14:44 47.51966 -81.01931 23596 ft 231 kts 281°
2026-05-04 14:44 47.52165 -81.04287 23597 ft 231 kts 281°
2026-05-04 14:44 47.52363 -81.06642 23597 ft 231 kts 281°
2026-05-04 14:44 47.52561 -81.09009 23598 ft 231 kts 281°
2026-05-04 14:45 47.52758 -81.11370 23598 ft 231 kts 281°
2026-05-04 14:45 47.52956 -81.13733 23596 ft 232 kts 281°
2026-05-04 14:45 47.53153 -81.16099 23596 ft 231 kts 281°
2026-05-04 14:45 47.53348 -81.18456 23596 ft 231 kts 281°
2026-05-04 14:46 47.53544 -81.20821 23597 ft 231 kts 281°
2026-05-04 14:46 47.53741 -81.23186 23597 ft 231 kts 281°
2026-05-04 14:46 47.53936 -81.25551 23597 ft 232 kts 281°
2026-05-04 14:46 47.54130 -81.27923 23597 ft 232 kts 281°
2026-05-04 14:47 47.54322 -81.30260 23597 ft 232 kts 281°
2026-05-04 14:47 47.54517 -81.32641 23597 ft 233 kts 281°
2026-05-04 14:47 47.54711 -81.35020 23597 ft 233 kts 281°
2026-05-04 14:47 47.54905 -81.37406 23598 ft 234 kts 281°
2026-05-04 14:48 47.55100 -81.39800 23569 ft 235 kts 281°
2026-05-04 14:48 47.55294 -81.42199 23558 ft 235 kts 280°
2026-05-04 14:48 47.55487 -81.44598 23558 ft 234 kts 281°
2026-05-04 14:48 47.55680 -81.46994 23559 ft 234 kts 280°
2026-05-04 14:49 47.55873 -81.49388 23558 ft 234 kts 281°
2026-05-04 14:49 47.56066 -81.51790 23558 ft 235 kts 280°
2026-05-04 14:49 47.56256 -81.54186 23558 ft 234 kts 280°
2026-05-04 14:49 47.56447 -81.56588 23550 ft 234 kts 280°
2026-05-04 14:50 47.56638 -81.58983 23549 ft 234 kts 280°
2026-05-04 14:50 47.56829 -81.61384 23550 ft 235 kts 280°
2026-05-04 14:50 47.57019 -81.63788 23549 ft 234 kts 280°
2026-05-04 14:50 47.57207 -81.66186 23549 ft 235 kts 280°
2026-05-04 14:51 47.57395 -81.68583 23549 ft 234 kts 280°
2026-05-04 14:51 47.57583 -81.70978 23550 ft 234 kts 280°
2026-05-04 14:51 47.57769 -81.73345 23548 ft 234 kts 280°
2026-05-04 14:51 47.57955 -81.75742 23549 ft 234 kts 280°
2026-05-04 14:52 47.58142 -81.78142 23535 ft 235 kts 280°
2026-05-04 14:52 47.58328 -81.80554 23534 ft 236 kts 280°
2026-05-04 14:52 47.58515 -81.82966 23541 ft 236 kts 280°
2026-05-04 14:52 47.58701 -81.85373 23536 ft 235 kts 280°
2026-05-04 14:53 47.58886 -81.87787 23531 ft 236 kts 280°
2026-05-04 14:53 47.59071 -81.90198 23535 ft 236 kts 280°
2026-05-04 14:53 47.59256 -81.92614 23536 ft 236 kts 280°
2026-05-04 14:53 47.59441 -81.95035 23535 ft 236 kts 280°
2026-05-04 14:54 47.59623 -81.97449 23534 ft 236 kts 280°
2026-05-04 14:54 47.59807 -81.99873 23530 ft 237 kts 280°
2026-05-04 14:54 47.59991 -82.02298 23528 ft 237 kts 279°
2026-05-04 14:54 47.60174 -82.04725 23532 ft 237 kts 279°
2026-05-04 14:55 47.60356 -82.07150 23529 ft 237 kts 279°
2026-05-04 14:55 47.60536 -82.09549 23530 ft 237 kts 279°
2026-05-04 14:55 47.60717 -82.11975 23527 ft 237 kts 279°
2026-05-04 14:55 47.60898 -82.14406 23522 ft 237 kts 279°
2026-05-04 14:56 47.61079 -82.16835 23522 ft 237 kts 279°
2026-05-04 14:56 47.61258 -82.19258 23523 ft 237 kts 279°
2026-05-04 14:56 47.61437 -82.21681 23523 ft 236 kts 279°
2026-05-04 14:56 47.61615 -82.24103 23523 ft 236 kts 279°
2026-05-04 14:57 47.61793 -82.26521 23522 ft 236 kts 279°
2026-05-04 14:57 47.61970 -82.28938 23514 ft 236 kts 279°
2026-05-04 14:57 47.62147 -82.31359 23511 ft 236 kts 279°
2026-05-04 14:57 47.62323 -82.33776 23514 ft 236 kts 279°
2026-05-04 14:58 47.62498 -82.36194 23514 ft 236 kts 279°
2026-05-04 14:58 47.62673 -82.38608 23513 ft 235 kts 279°
2026-05-04 14:58 47.62847 -82.41025 23511 ft 236 kts 279°
2026-05-04 14:58 47.62962 -82.42622 23514 ft 236 kts 279°
2026-05-04 14:59 47.63136 -82.45049 23502 ft 237 kts 279°
2026-05-04 14:59 47.63310 -82.47473 23502 ft 237 kts 279°
2026-05-04 14:59 47.63656 -82.52331 23503 ft 237 kts 279°
2026-05-04 15:00 47.63828 -82.54761 23503 ft 237 kts 279°
2026-05-04 15:00 47.64000 -82.57191 23503 ft 237 kts 279°
2026-05-04 15:00 47.64171 -82.59620 23493 ft 237 kts 278°
2026-05-04 15:01 47.64509 -82.64444 23484 ft 236 kts 278°
2026-05-04 15:01 47.64679 -82.66871 23484 ft 237 kts 278°
2026-05-04 15:01 47.64848 -82.69301 23484 ft 237 kts 278°
2026-05-04 15:01 47.65017 -82.71729 23484 ft 237 kts 278°
2026-05-04 15:02 47.65185 -82.74162 23484 ft 237 kts 278°
2026-05-04 15:02 47.65352 -82.76592 23484 ft 237 kts 278°
2026-05-04 15:02 47.65520 -82.79030 23483 ft 237 kts 278°
2026-05-04 15:02 47.65687 -82.81463 23485 ft 237 kts 278°
2026-05-04 15:03 47.65854 -82.83902 23406 ft 240 kts 278°
2026-05-04 15:03 47.66026 -82.86400 23008 ft 241 kts 278°
2026-05-04 15:03 47.66193 -82.88834 22606 ft 233 kts 277°
2026-05-04 15:03 47.66353 -82.91202 22236 ft 227 kts 277°
2026-05-04 15:04 47.66506 -82.93486 22001 ft 219 kts 277°
2026-05-04 15:04 47.66655 -82.95701 21774 ft 213 kts 277°
2026-05-04 15:04 47.66801 -82.97871 21547 ft 210 kts 277°
2026-05-04 15:04 47.66943 -83.00009 21319 ft 207 kts 277°
2026-05-04 15:05 47.67083 -83.02096 21099 ft 205 kts 276°
2026-05-04 15:05 47.67222 -83.04196 20873 ft 204 kts 276°
2026-05-04 15:05 47.67361 -83.06285 20649 ft 203 kts 276°
2026-05-04 15:05 47.67499 -83.08370 20423 ft 203 kts 275°
2026-05-04 15:06 47.67636 -83.10447 20198 ft 202 kts 273°
2026-05-04 15:06 47.67772 -83.12518 19972 ft 201 kts 272°
2026-05-04 15:06 47.67909 -83.14583 19748 ft 200 kts 272°
2026-05-04 15:07 47.68176 -83.18693 19295 ft 199 kts 272°
2026-05-04 15:07 47.68309 -83.20738 19062 ft 199 kts 272°
2026-05-04 15:07 47.68441 -83.22781 18845 ft 199 kts 272°
2026-05-04 15:07 47.68572 -83.24815 18621 ft 198 kts 272°
2026-05-04 15:08 47.68705 -83.26854 18394 ft 197 kts 271°
2026-05-04 15:08 47.68835 -83.28882 18170 ft 197 kts 271°
2026-05-04 15:08 47.68963 -83.30882 17946 ft 197 kts 271°
2026-05-04 15:08 47.69093 -83.32909 17722 ft 197 kts 271°
2026-05-04 15:09 47.69224 -83.34958 17494 ft 197 kts 271°
2026-05-04 15:09 47.69351 -83.36955 17271 ft 197 kts 271°
2026-05-04 15:09 47.69479 -83.38977 17065 ft 196 kts 271°
2026-05-04 15:10 47.69732 -83.42986 16663 ft 194 kts 270°
2026-05-04 15:10 47.69857 -83.44975 16462 ft 193 kts 270°
2026-05-04 15:10 47.70106 -83.48941 16064 ft 193 kts 270°
2026-05-04 15:11 47.70230 -83.50928 15861 ft 193 kts 270°
2026-05-04 15:11 47.70353 -83.52909 15661 ft 193 kts 270°
2026-05-04 15:11 47.70476 -83.54889 15462 ft 193 kts 270°
2026-05-04 15:11 47.70598 -83.56868 15262 ft 193 kts 270°
2026-05-04 15:12 47.70720 -83.58849 15062 ft 192 kts 269°
2026-05-04 15:12 47.70842 -83.60822 14861 ft 192 kts 269°
2026-05-04 15:12 47.70963 -83.62796 14660 ft 192 kts 269°
2026-05-04 15:12 47.71083 -83.64769 14462 ft 192 kts 269°
2026-05-04 15:13 47.71204 -83.66745 14266 ft 192 kts 269°
2026-05-04 15:13 47.71323 -83.68712 14059 ft 191 kts 269°
2026-05-04 15:13 47.71441 -83.70655 13862 ft 191 kts 268°
2026-05-04 15:13 47.71559 -83.72619 13661 ft 191 kts 269°
2026-05-04 15:14 47.71679 -83.74586 13461 ft 191 kts 268°
2026-05-04 15:14 47.71796 -83.76552 13262 ft 192 kts 268°
2026-05-04 15:14 47.71914 -83.78527 13060 ft 192 kts 268°
2026-05-04 15:14 47.72032 -83.80496 12861 ft 192 kts 268°
2026-05-04 15:15 47.72150 -83.82471 12660 ft 192 kts 268°
2026-05-04 15:15 47.72267 -83.84445 12461 ft 192 kts 268°
2026-05-04 15:15 47.72384 -83.86426 12265 ft 192 kts 268°
2026-05-04 15:16 47.72617 -83.90370 11862 ft 192 kts 267°
2026-05-04 15:16 47.72732 -83.92344 11659 ft 192 kts 267°
2026-05-04 15:16 47.72964 -83.96287 11258 ft 191 kts 267°
2026-05-04 15:17 47.73078 -83.98263 11060 ft 192 kts 267°
2026-05-04 15:17 47.73310 -84.02226 10658 ft 192 kts 267°
2026-05-04 15:17 47.73422 -84.04203 10461 ft 192 kts 266°
2026-05-04 15:18 47.73536 -84.06181 10258 ft 192 kts 266°
2026-05-04 15:18 47.73650 -84.08161 10069 ft 192 kts 266°
2026-05-04 15:18 47.73762 -84.10110 9862 ft 193 kts 266°
2026-05-04 15:19 47.73990 -84.14185 9459 ft 201 kts 266°
2026-05-04 15:19 47.74109 -84.16268 9260 ft 203 kts 266°
2026-05-04 15:19 47.74347 -84.20472 8860 ft 205 kts 266°
2026-05-04 15:20 47.74465 -84.22582 8659 ft 205 kts 266°
2026-05-04 15:20 47.74583 -84.24685 8459 ft 204 kts 266°
2026-05-04 15:20 47.74701 -84.26788 8254 ft 203 kts 266°
2026-05-04 15:20 47.74818 -84.28870 8063 ft 202 kts 266°
2026-05-04 15:21 47.74931 -84.30953 7859 ft 202 kts 266°
2026-05-04 15:21 47.75046 -84.33042 7656 ft 203 kts 266°
2026-05-04 15:21 47.75276 -84.37218 7261 ft 204 kts 265°
2026-05-04 15:22 47.75391 -84.39319 7057 ft 204 kts 266°
2026-05-04 15:22 47.75504 -84.41389 6861 ft 203 kts 265°
2026-05-04 15:22 47.75731 -84.45555 6459 ft 201 kts 265°
2026-05-04 15:23 47.75842 -84.47618 6259 ft 200 kts 265°
2026-05-04 15:23 47.75951 -84.49680 6061 ft 200 kts 265°
2026-05-04 15:23 47.76062 -84.51744 5860 ft 200 kts 265°
2026-05-04 15:23 47.76171 -84.53800 5654 ft 199 kts 265°
2026-05-04 15:24 47.76387 -84.57854 5255 ft 196 kts 265°
2026-05-04 15:24 47.76603 -84.61934 4858 ft 197 kts 266°
2026-05-04 15:25 47.76707 -84.63949 4656 ft 195 kts 266°
2026-05-04 15:25 47.76810 -84.65957 4459 ft 195 kts 267°
2026-05-04 15:25 47.76914 -84.67946 4260 ft 196 kts 268°
2026-05-04 15:26 47.77127 -84.72003 3845 ft 198 kts 268°
2026-05-04 15:26 47.77230 -84.74043 3653 ft 198 kts 269°
2026-05-04 15:26 47.77436 -84.78113 3253 ft 197 kts 269°
2026-05-04 15:27 47.77582 -84.80140 3049 ft 199 kts 278°
2026-05-04 15:27 47.78851 -84.83857 2806 ft 197 kts 295°
2026-05-04 15:28 47.80143 -84.87244 2801 ft 177 kts 294°
2026-05-04 15:28 47.80858 -84.88612 2795 ft 161 kts 314°
2026-05-04 15:28 47.82868 -84.89659 2800 ft 154 kts 359°
2026-05-04 15:29 47.83873 -84.89316 2798 ft 144 kts 22°
2026-05-04 15:30 47.87170 -84.86596 2795 ft 123 kts 28°
2026-05-04 15:30 47.89233 -84.84875 2647 ft 115 kts 28°
2026-05-04 15:31 47.90667 -84.83677 2308 ft 122 kts 27°
2026-05-04 15:31 47.91400 -84.83064 2129 ft 119 kts 28°
2026-05-04 15:32 47.93465 -84.81333 1632 ft 104 kts 28°
2026-05-04 15:32 47.94693 -84.80307 1345 ft 99 kts 30°
2026-05-04 15:33 47.95881 -84.79306 1049 ft 95 kts 30°
2026-05-04 15:34 47.96818 -84.78529 942 ft 24 kts 28°
2026-05-04 15:34 47.96985 -84.78382 939 ft 28 kts 32°
2026-05-04 15:34 47.97223 -84.78225 941 ft 13 kts 342°
2026-05-04 15:35 47.97329 -84.78196 942 ft 2 kts 294°
2026-05-04 15:35 47.97330 -84.78203 942 ft 0 kts 289°